Location: Unspecified
(0.0000°N, 0.0000°E)
Time: 17:47:21
(UTC+00:00)

STARLINK 1043 - Pass Details

Date: 23 January 2020
Orbit: 548 x 551 km, 53.0° (Epoch: 17 January)

Event Time Altitude Azimuth Distance (km) Brightness Sun altitude
Exits shadow 03:47:24 18° 102° (ESE) 1,378 6.3 -33.7°
Drops below altitude 10° 03:49:18 10° 76° (ENE) 1,812 6.8 -33.2°
Sets 03:51:58 0° 59° (ENE) 2,702 7.6 -32.6°
